TimeCST,TemperatureF,Dew PointF,Humidity,Sea Level PressureIn,VisibilityMPH,Wind Direction,Wind SpeedMPH,Gust SpeedMPH,PrecipitationIn,Events,Conditions,WindDirDegrees,DateUTC
12:15 AM,53.6,53.6,100,30.39,6.0,ENE,3.5,-,N/A,,Overcast,70,2013-01-10 06:15:00
12:35 AM,53.6,53.6,100,30.39,10.0,Calm,Calm,-,N/A,,Overcast,0,2013-01-10 06:35:00
12:55 AM,53.6,53.6,100,30.39,10.0,Calm,Calm,-,N/A,,Overcast,0,2013-01-10 06:55:00
2:15 AM,53.6,53.6,100,30.38,10.0,ESE,4.6,-,N/A,,Overcast,110,2013-01-10 08:15:00
2:35 AM,53.6,53.6,100,30.38,4.0,ESE,3.5,-,N/A,,Overcast,110,2013-01-10 08:35:00
2:55 AM,55.4,53.6,94,30.37,10.0,Calm,Calm,-,N/A,,Overcast,0,2013-01-10 08:55:00
3:15 AM,55.4,53.6,94,30.36,10.0,Calm,Calm,-,N/A,,Overcast,0,2013-01-10 09:15:00
3:35 AM,55.4,53.6,94,30.36,10.0,Calm,Calm,-,N/A,,Overcast,0,2013-01-10 09:35:00
3:55 AM,55.4,53.6,94,30.35,10.0,East,3.5,-,N/A,,Overcast,100,2013-01-10 09:55:00
4:15 AM,53.6,53.6,100,30.34,10.0,Calm,Calm,-,N/A,,Overcast,0,2013-01-10 10:15:00
4:35 AM,55.4,55.4,100,30.34,10.0,ESE,4.6,-,N/A,,Overcast,120,2013-01-10 10:35:00
4:55 AM,55.4,55.4,100,30.33,10.0,ESE,5.8,-,N/A,,Overcast,120,2013-01-10 10:55:00
5:35 AM,55.4,55.4,100,30.32,10.0,ESE,4.6,-,N/A,,Overcast,120,2013-01-10 11:35:00
5:55 AM,55.4,55.4,100,30.33,10.0,SSE,5.8,-,N/A,,Overcast,160,2013-01-10 11:55:00
6:15 AM,55.4,55.4,100,30.33,10.0,SSE,3.5,-,N/A,,Overcast,150,2013-01-10 12:15:00
6:35 AM,55.4,55.4,100,30.34,10.0,SE,3.5,-,N/A,,Overcast,130,2013-01-10 12:35:00
6:55 AM,55.4,55.4,100,30.34,10.0,ESE,3.5,-,N/A,,Overcast,120,2013-01-10 12:55:00
7:15 AM,55.4,55.4,100,30.34,10.0,Calm,Calm,-,N/A,,Overcast,0,2013-01-10 13:15:00
7:35 AM,55.4,55.4,100,30.34,10.0,SE,3.5,-,N/A,,Overcast,130,2013-01-10 13:35:00
7:55 AM,55.4,55.4,100,30.35,10.0,SE,10.4,-,N/A,,Overcast,140,2013-01-10 13:55:00
8:15 AM,55.4,55.4,100,30.35,7.0,SE,9.2,-,N/A,,Overcast,140,2013-01-10 14:15:00
8:35 AM,57.2,55.4,94,30.35,10.0,SSE,10.4,-,N/A,,Overcast,160,2013-01-10 14:35:00
9:15 AM,57.2,55.4,94,30.36,10.0,SE,8.1,-,N/A,,Overcast,130,2013-01-10 15:15:00
9:55 AM,57.2,55.4,94,30.36,10.0,SE,9.2,-,N/A,,Overcast,140,2013-01-10 15:55:00
10:15 AM,57.2,55.4,94,30.35,10.0,SE,10.4,-,N/A,,Overcast,130,2013-01-10 16:15:00
10:35 AM,57.2,55.4,94,30.34,10.0,SSE,8.1,-,N/A,,Overcast,150,2013-01-10 16:35:00
10:55 AM,59.0,55.4,88,30.33,10.0,SSE,9.2,-,N/A,,Overcast,150,2013-01-10 16:55:00
11:15 AM,59.0,57.2,94,30.31,10.0,SE,9.2,-,N/A,,Overcast,140,2013-01-10 17:15:00
11:35 AM,59.0,57.2,94,30.30,10.0,SE,8.1,-,N/A,,Overcast,140,2013-01-10 17:35:00
11:55 AM,60.8,57.2,88,30.29,10.0,SE,8.1,-,N/A,,Overcast,140,2013-01-10 17:55:00
12:15 PM,60.8,57.2,88,30.29,10.0,SE,6.9,-,N/A,,Overcast,140,2013-01-10 18:15:00
12:35 PM,60.8,57.2,88,30.27,10.0,SSE,10.4,-,N/A,,Overcast,150,2013-01-10 18:35:00
12:55 PM,60.8,57.2,88,30.27,10.0,SE,12.7,-,N/A,,Overcast,140,2013-01-10 18:55:00
1:35 PM,60.8,57.2,88,30.25,10.0,SE,12.7,-,N/A,,Scattered Clouds,140,2013-01-10 19:35:00
1:55 PM,62.6,57.2,82,30.26,10.0,SSE,11.5,-,N/A,,Mostly Cloudy,150,2013-01-10 19:55:00
2:15 PM,60.8,57.2,88,30.26,10.0,SE,11.5,-,N/A,,Overcast,140,2013-01-10 20:15:00
2:35 PM,60.8,57.2,88,30.26,10.0,SSE,12.7,-,N/A,,Overcast,150,2013-01-10 20:35:00
2:55 PM,60.8,57.2,88,30.25,10.0,SE,11.5,-,N/A,,Overcast,130,2013-01-10 20:55:00
3:15 PM,60.8,57.2,88,30.25,10.0,SE,10.4,-,N/A,,Overcast,140,2013-01-10 21:15:00
3:35 PM,60.8,57.2,88,30.25,10.0,SSE,9.2,-,N/A,,Overcast,150,2013-01-10 21:35:00
3:55 PM,60.8,57.2,88,30.24,10.0,SE,5.8,-,N/A,,Overcast,140,2013-01-10 21:55:00
4:15 PM,60.8,57.2,88,30.24,10.0,SE,8.1,-,N/A,,Overcast,140,2013-01-10 22:15:00
4:35 PM,60.8,57.2,88,30.23,10.0,SE,9.2,-,N/A,,Overcast,140,2013-01-10 22:35:00
4:55 PM,60.8,57.2,88,30.23,10.0,SE,9.2,-,N/A,,Overcast,140,2013-01-10 22:55:00
5:15 PM,60.8,57.2,88,30.22,10.0,SSE,9.2,-,N/A,,Overcast,150,2013-01-10 23:15:00
5:35 PM,60.8,57.2,88,30.21,10.0,SSE,15.0,-,N/A,,Overcast,150,2013-01-10 23:35:00
5:55 PM,62.6,57.2,82,30.20,10.0,SSE,15.0,-,N/A,,Overcast,150,2013-01-10 23:55:00
6:15 PM,60.8,57.2,88,30.19,7.0,SSE,11.5,-,N/A,,Overcast,150,2013-01-11 00:15:00
6:35 PM,60.8,57.2,88,30.19,10.0,SSE,15.0,-,N/A,,Overcast,150,2013-01-11 00:35:00
6:55 PM,62.6,57.2,82,30.18,10.0,SSE,15.0,-,N/A,,Overcast,150,2013-01-11 00:55:00
7:15 PM,62.6,57.2,82,30.16,10.0,SSE,15.0,-,N/A,,Mostly Cloudy,160,2013-01-11 01:15:00
7:35 PM,62.6,55.4,77,30.15,10.0,SSE,13.8,-,N/A,,Mostly Cloudy,150,2013-01-11 01:35:00
7:55 PM,62.6,55.4,77,30.15,10.0,SSE,15.0,-,N/A,,Overcast,150,2013-01-11 01:55:00
8:15 PM,62.6,55.4,77,30.13,10.0,SSE,17.3,-,N/A,,Overcast,150,2013-01-11 02:15:00
8:35 PM,62.6,55.4,77,30.12,10.0,SSE,13.8,-,N/A,,Overcast,150,2013-01-11 02:35:00
8:55 PM,62.6,55.4,77,30.10,10.0,SE,16.1,-,N/A,,Overcast,140,2013-01-11 02:55:00
9:15 PM,62.6,57.2,82,30.10,10.0,SSE,15.0,-,N/A,,Overcast,150,2013-01-11 03:15:00
9:35 PM,62.6,57.2,82,30.11,10.0,SSE,13.8,-,N/A,,Overcast,160,2013-01-11 03:35:00
9:55 PM,62.6,57.2,82,30.09,10.0,SSE,12.7,-,N/A,,Overcast,150,2013-01-11 03:55:00
10:15 PM,62.6,57.2,82,30.08,10.0,SE,12.7,-,N/A,,Overcast,140,2013-01-11 04:15:00
10:35 PM,62.6,57.2,82,30.07,10.0,SE,15.0,-,N/A,,Overcast,140,2013-01-11 04:35:00
10:55 PM,62.6,57.2,82,30.07,10.0,SSE,13.8,-,N/A,,Overcast,150,2013-01-11 04:55:00
11:15 PM,62.6,57.2,82,30.07,10.0,SSE,12.7,-,N/A,,Overcast,150,2013-01-11 05:15:00
11:35 PM,62.6,57.2,82,30.06,10.0,SSE,11.5,-,N/A,,Overcast,150,2013-01-11 05:35:00
11:55 PM,64.4,57.2,77,30.06,10.0,SSE,12.7,-,N/A,,Overcast,150,2013-01-11 05:55:00